Regional Weather Roundup
Issued by NWS Jackson, KY

Home | Current Version | Previous Version | Graphics & Text | Print | Product List | Glossary On
Versions: 1 2 3 4 5 6 7 8 9 10 11 12 13 14 15 16 17 18 19 20 21 22 23 24 25 26 27 28
000
ASUS43 KJKL 040010
RWRJKL

EAST KENTUCKY HOURLY WEATHER ROUNDUP
NATIONAL WEATHER SERVICE JACKSON KY
800 PM EDT TUE MAY 03 2016

NOTE: "FAIR" INDICATES FEW OR NO CLOUDS BELOW 12,000 FEET WITH
NO SIGNIFICANT WEATHER AND/OR OBSTRUCTIONS TO VISIBILITY.

* THESE REPORTS ARE NOT UNDER NWS QUALITY CONTROL AND MAY NOT
  REPORT WEATHER SUCH AS PRECIPITATION AND FOG.

KYZ079-080-083-085-087-088-110-112-115-119-120-040100
...EASTERN KENTUCKY...

CITY           SKY/WX    TMP DP  RH WIND       PRES   REMARKS
JACKSON        CLOUDY    56  45  66 MISG      29.88S
6HR MIN TEMP:  56; 6HR MAX TEMP:  65;

LONDON         CLOUDY    58  45  62 NW7       29.89S
6HR MIN TEMP:  58; 6HR MAX TEMP:  65;

SOMERSET*      CLOUDY    57  45  62 NW3       29.91S
MONTICELLO*    CLOUDY    60  49  66 W6        29.92S
6HR MIN TEMP:  60; 6HR MAX TEMP:  65;

WILLIAMSBURG*  CLEAR     57  46  67 NW3       29.90R
MIDDLESBORO*   PTCLDY    61  47  61 NW6       29.88S
6HR MIN TEMP:  61; 6HR MAX TEMP:  67;

HARLAN APT*    MOCLDY    61  45  55 SW3       29.88S
HAZARD APT*    PTCLDY    57  48  72 W5        29.88S
BLACK MTN*       N/A     46  45  93 N5          N/A
PIKE CO APT*   CLOUDY    58  49  71 W3        29.87S
BIG SANDY APT* CLOUDY    59  47  65 W3        29.87S
6HR MIN TEMP:  59; 6HR MAX TEMP:  65;

MOREHEAD APT*  CLOUDY    59  46  63 VRB5      29.88S
$$

KYZ035-036-041-042-044-050-067-078-099-040100
...CENTRAL KENTUCKY...

CITY           SKY/WX    TMP DP  RH WIND       PRES   REMARKS
MT STERLING*   CLOUDY    55  50  82 N6        29.89R
FLEMING/MASON* CLOUDY    54  52  93 W12       29.88S
DANVILLE*      CLOUDY    59  45  58 W5        29.90S
RICHMOND*      CLOUDY    57  46  67 CALM      29.88S
LEXINGTON      CLOUDY    57  49  74 N7        29.88S
6HR MIN TEMP:  57; 6HR MAX TEMP:  62;

FRANKFORT      CLOUDY    58  46  64 NW10      29.88S
6HR MIN TEMP:  58; 6HR MAX TEMP:  63;

LOUISVILLE     CLOUDY    59  43  55 NW9       29.90S
6HR MIN TEMP:  59; 6HR MAX TEMP:  68;

LEBANON*       CLOUDY    57  46  67 NW5       29.90S
BOWLING GREEN  CLOUDY    61  44  53 NW6       29.92S
6HR MIN TEMP:  61; 6HR MAX TEMP:  64;

$$

KYZ091>093-OHZ055-061-077-WVZ005-015-034-035-042-040100
...SOUTHERN OHIO/WEST VIRGINIA...

CITY           SKY/WX    TMP DP  RH WIND       PRES   REMARKS
COVINGTON      CLOUDY    55  51  86 SW3       29.87F
COLUMBUS       CLOUDY    56  44  64 W6        29.83F
DAYTON         CLOUDY    56  45  66 W6        29.86F
WILMINGTON     CLOUDY    56  46  69 NW5       29.85F
HUNTINGTON     CLOUDY    59  50  72 NW5       29.85R
CHARLESTON     MOCLDY    58  51  78 CALM      29.85S
PINEVILLE*       N/A     58  51  76 MISG      29.89S
BECKLEY        MOCLDY    55  47  74 N9        29.85S
$$

VAZ002-007-008-TNZ017-027-036-066-071-040100
...SOUTHWEST VIRGINIA/EAST TENNESSEE...

CITY           SKY/WX    TMP DP  RH WIND       PRES   REMARKS
WISE*          CLOUDY    55  39  54 CALM      29.89S
BRISTOL        MOCLDY    64  45  49 NW9       29.84R
MORRISTOWN*    PTCLDY    63  48  59 VRB7      29.85S
SEVIERVILLE*   CLOUDY    64  48  55 NW6       29.85S
KNOXVILLE      MOCLDY    65  48  54 W10       29.85S
OAK RIDGE      PTCLDY    66  44  45 VRB5      29.88S
CROSSVILLE     CLOUDY    60  46  59 NW8       29.91S
NASHVILLE      MOCLDY    62  43  49 N10       29.93S
$$

...KEY TO REMARKS...
VSB - VISIBILITY IN MILES
WCI - WIND CHILL INDEX
HX  - HEAT INDEX

$$




USA.gov is the U.S. government's official web portal to all federal, state and local government web resources and services.